Flag for Germany Weather past 2 weeks in Pinneberg, Schleswig-Holstein, Germany

Now
39 °F

Light rain. Passing clouds.


Feels Like: 30 °F
Forecast: 39 / 45 °F
Wind: 17 mph from South

Location: Hamburg-Fuhlsbuettel

Current Time: Mar 1, 2015 at 6:11:44 AM

Latest Report: Mar 1, 2015 at 5:50 AM


Visibility: N/A

Pressure: 29.53 "Hg

Humidity: 81%

Dew point: 34 °F

Location of PinnebergLocation

Historic Weather in Pinneberg — Graph

°F

Pinneberg temperature yesterday

Maximum temperature yesterday: 45 °F (at 12:50 PM)
Minimum temperature yesterday: 32 °F (at 12:20 AM)
Average temperature yesterday: 38 °F

Past Weeks' High & Low Weather Summary

 TemperatureHumidityPressure
High50 °F (Feb 14, 2:20 PM)100% (Feb 14, 7:20 AM)30.69 "Hg (Feb 14, 7:20 AM)
Low28 °F (Feb 17, 3:50 AM)54% (Feb 14, 2:20 PM)29.24 "Hg (Feb 21, 9:50 AM)
Average38 °F85%29.94 "Hg
* Reported Feb 14 5:20 AM — Mar 1 5:20 AM, Pinneberg, Weather by CustomWeather, © 2015

Note: Actual official high and low records may vary slightly from our data, if they occured in-between our weather recording intervals... More about our weather records

Advertising

Pinneberg weather history for previous 24 hours

 ConditionsComfort  
Time TempWeatherWind HumidityBarometerVisibility
5:20 AM
Sun, Mar 1
39 °FLight rain. Passing clouds.17 mph75%29.53 "HgN/A
4:50 AM39 °FLight rain. Passing clouds.16 mph70%29.56 "HgN/A
4:20 AM39 °FLight rain. Passing clouds.16 mph70%29.56 "HgN/A
3:50 AM41 °FPassing clouds.15 mph61%29.59 "HgN/A
3:20 AM39 °FPassing clouds.16 mph65%29.62 "HgN/A
2:50 AM39 °FPassing clouds.16 mph65%29.62 "HgN/A
2:20 AM39 °FPassing clouds.15 mph65%29.65 "HgN/A
1:50 AM39 °FClear.14 mph65%29.68 "Hg10 mi
1:20 AM39 °FClear.15 mph65%29.71 "Hg10 mi
12:50 AM37 °FClear.14 mph70%29.74 "Hg10 mi
12:20 AM37 °FClear.15 mph70%29.74 "Hg10 mi
11:50 PM
Sat, Feb 28
37 °FClear.14 mph70%29.77 "Hg10 mi
11:20 PM37 °FClear.16 mph75%29.80 "Hg10 mi
10:50 PM37 °FClear.15 mph75%29.80 "Hg10 mi
10:20 PM39 °FClear.13 mph65%29.83 "Hg10 mi
9:50 PM39 °FClear.16 mph70%29.86 "Hg10 mi
9:20 PM37 °FClear.16 mph70%29.86 "Hg10 mi
8:50 PM39 °FClear.13 mph65%29.89 "Hg10 mi
8:20 PM39 °FClear.9 mph65%29.89 "Hg10 mi
7:50 PM37 °FClear.9 mph70%29.89 "Hg10 mi
7:20 PM39 °FClear.10 mph65%29.92 "Hg10 mi
6:50 PM39 °FClear.10 mph65%29.92 "Hg10 mi
6:20 PM41 °FClear.12 mph66%29.92 "Hg10 mi
5:50 PM41 °FSunny.12 mph66%29.92 "Hg10 mi
5:20 PM43 °FSunny.13 mph61%29.92 "Hg10 mi
4:50 PM43 °FPassing clouds.15 mph61%29.95 "HgN/A
4:20 PM43 °FPassing clouds.16 mph61%29.95 "HgN/A
3:50 PM43 °FPassing clouds.14 mph61%29.98 "HgN/A
3:20 PM43 °FPassing clouds.15 mph61%29.98 "HgN/A
2:50 PM43 °FPassing clouds.16 mph66%30.01 "HgN/A
2:20 PM43 °FScattered clouds.18 mph66%30.01 "HgN/A
1:50 PM43 °FScattered clouds.15 mph66%30.01 "HgN/A
1:20 PM43 °FScattered clouds.15 mph66%30.04 "HgN/A
12:50 PM45 °FScattered clouds.15 mph66%30.04 "HgN/A
12:20 PM41 °FScattered clouds.17 mph70%30.04 "HgN/A
11:50 AM41 °FScattered clouds.14 mph70%30.04 "HgN/A
11:20 AM41 °FScattered clouds.14 mph70%30.07 "HgN/A
10:50 AM39 °FPassing clouds.10 mph75%30.07 "HgN/A
10:20 AM37 °FPartly sunny.9 mph87%30.07 "HgN/A
9:50 AM37 °FPartly sunny.9 mph87%30.07 "HgN/A
9:20 AM36 °FPartly sunny.9 mph93%30.09 "HgN/A
8:50 AM34 °FPartly sunny.6 mph100%30.07 "HgN/A
8:20 AM32 °FScattered clouds.7 mph100%30.07 "HgN/A
7:50 AM34 °FPartly sunny.8 mph100%30.07 "HgN/A
7:20 AM32 °FScattered clouds.7 mph100%30.07 "HgN/A
6:50 AM32 °FPassing clouds.6 mph100%30.07 "HgN/A
6:20 AM32 °FPassing clouds.6 mph100%30.07 "HgN/A
Weather by CustomWeather, © 2015

See weather overviewHow to use our weather pages